Regional Weather Roundup
Issued by NWS

Home | Current Version | Previous Version | Text Only | Print | Product List | Glossary Off
Versions: 1 2 3 4 5 6 7 8 9 10 11 12 13 14 15 16 17 18 19 20 21 22 23 24 25 26 27 28 29 30 31 32 33 34 35 36 37 38 39 40 41 42 43 44 45 46 47 48 49 50

000
ASUS43 KLOT 132300
RWRIL

ILLINOIS REGIONAL WEATHER ROUNDUP
NATIONAL WEATHER SERVICE CHICAGO/ROMEOVILLE IL
600 PM CDT SUN JUL 13 2014

NOTE: "FAIR" INDICATES FEW OR NO CLOUDS BELOW 12,000 FEET WITH NO
SIGNIFICANT WEATHER AND/OR OBSTRUCTIONS TO VISIBILITY.

* THESE STATIONS ARE NOT UNDER NWS QUALITY CONTROL. THEY ALSO MAY NOT
  REPORT WEATHER SUCH AS PRECIPITATION OR FOG.

ILZ001-002-007-009-015-016-024-140000-
NORTHWEST ILLINOIS

CITY           SKY/WX    TMP DP  RH WIND       PRES   REMARKS
MOLINE         CLOUDY    78  62  57 N12       29.92R HX  80
STERLING*      PTSUNNY   72  66  83 SW8       29.92R
$$

ILZ003-004-008-010-011-017-018-140000-
NORTH CENTRAL ILLINOIS

CITY           SKY/WX    TMP DP  RH WIND       PRES   REMARKS
ROCKFORD       PTSUNNY   82  67  60 W9        29.89F HX  84
$$

ILZ005-006-012>014-019>023-140000-
NORTHEAST ILLINOIS

CITY           SKY/WX    TMP DP  RH WIND       PRES   REMARKS
CHICAGO-OHARE  MOSUNNY   83  61  47 W10       29.87F HX  83
CHICAGO-MIDWAY MOSUNNY   85  63  47 W10       29.88F HX  86
AURORA         MOSUNNY   82  66  58 W10       29.90S HX  84
WAUKEGAN       PTSUNNY   80  62  54 VRB5      29.86S HX  81
DUPAGE AIRPORT MOSUNNY   81  65  58 W10       29.88F HX  83
WHEELING       MOSUNNY   84  62  47 W10       29.88F HX  85
NORTHERLY ISL    N/A     83  58  42 W6          N/A  HX  83
$$

LMZ740>746-140000-
SOUTHERN LAKE MICHIGAN

STATION/POSITION SKY/WX   TEMP    WIND        PRES    VSBY  WAVE
                          AIR SEA DIR/SP/G                  HT/PER
                          (F)     (DEG/KT/KT) (MB)    (MI)  (FT/S)
SOUTHERN BUOY              65 63  190/ 10/ 12 1011.4F         1
WAUKEGAN HARBOR            82     260/ 12/ 15 1011.9F
HARRISON CRIB              75     140/ 13/ 14   N/A
BURNHAM HARBOR             83     290/ 10/ 11   N/A
CALUMET HARBOR             84     240/  2/  9 1012.7F
MICHIGAN CITY              79     210/  3/  4   N/A
$$

ILZ025>027-034>036-040-047-049-050-058-095>099-140000-
WEST-CENTRAL ILLINOIS

CITY           SKY/WX    TMP DP  RH WIND       PRES   REMARKS
QUINCY         SUNNY     83  69  62 NW7       29.95F HX  86
$$

ILZ028>032-037-038-041>044-048-051>054-059>061-140000-
CENTRAL ILLINOIS

CITY           SKY/WX    TMP DP  RH WIND       PRES   REMARKS
DECATUR        MOSUNNY   84  69  60 VRB6      29.94F HX  88
PEORIA         MOSUNNY   83  69  62 SW8       29.93F HX  86
SPRINGFIELD    MOSUNNY   85  69  58 W5        29.94F HX  89
TAYLORVILLE    NOT AVBL
$$

ILZ033-039-045-046-055>057-062-063-140000-
EAST-CENTRAL ILLINOIS

CITY           SKY/WX    TMP DP  RH WIND       PRES   REMARKS
CHAMPAIGN      MOSUNNY   82  70  66 NW8       29.94F HX  86
MATTOON        MOSUNNY   83  71  67 NW10      29.93F HX  87
$$

ILZ079-100>102-140000-
SOUTHWEST ILLINOIS

CITY           SKY/WX    TMP DP  RH WIND       PRES   REMARKS
BELLEVILLE     PTSUNNY   86  74  67 SW3       29.92F HX  94
CAHOKIA*       LGT RAIN  85  73  67 CALM      29.93S HX  91
$$

ILZ064>066-069>071-074>076-080>082-084>086-088>090-092>094-140000-
SOUTH-CENTRAL ILLINOIS

CITY           SKY/WX    TMP DP  RH WIND       PRES   REMARKS
CARBONDALE     MOSUNNY   87  76  69 SE3       29.92F HX  97
MARION         PTSUNNY   84  79  84 NE7       29.94F HX  96
MT. VERNON     PTSUNNY   88  72  58 SW10      29.93F HX  94
$$

ILZ067-068-072-073-078-083-087-091-140000-
SOUTHEAST ILLINOIS

CITY           SKY/WX    TMP DP  RH WIND       PRES   REMARKS
$$

ABBREVIATIONS USED IN REMARKS
   TC - TEMPERATURE IN CELSIUS
  WCI - WIND CHILL INDEX
   HX - HEAT INDEX
  VSB - VISIBILITY
$$




USA.gov is the U.S. government's official web portal to all federal, state and local government web resources and services.